Orbital Elements
The following orbital elements are taken from MPC 66464:
Epoch 2008 Nov. 30.0 TT = JDT 2454800.5
T 2008 Nov. 16.3160 TT MPC
q 2.647085 (2000.0) P Q
z -0.000647 Peri. 223.9845 -0.1174945 +0.1531425
+/-0.000000 Node 78.9951 -0.3754319 +0.9078609
e 1.001713 Incl. 88.3307 -0.9193726 -0.3903025
From 1837 observations 2007 Apr. 10-2009 May 16, mean residual 0".5.
|